Home   Weather   Denver   Past weeks

Flag for USA Past Weather in Denver, Colorado, USA — Yesterday and Last 2 Weeks

Now
59 °F

Partly sunny.


Feels Like: 56 °F
Forecast: 36 / 60 °F
Wind: 20 mph from North

Location: Buckley Air Force Base

Current Time: May 23, 2017 at 2:54:04 pm

Latest Report: May 23, 2017 at 1:58 pm


Visibility: 10 mi

Pressure: 30.06 "Hg (24.89 "Hg at 1593m altitude)

Humidity: 35%

Dew Point: 31 °F

Location of DenverLocation

Past Weather in Denver — Graph

°F

Denver Temperature Yesterday

Maximum temperature yesterday: 64 °F (at 2:58 pm)
Minimum temperature yesterday: 40 °F (at 11:58 pm)
Average temperature yesterday: 50 °F

High & Low Weather Summary for the Past Weeks

 TemperatureHumidityPressure
High84 °F (May 13, 2:58 pm)100% (May 8, 7:58 pm)30.21 "Hg (May 8, 7:58 pm)
Low32 °F (May 18, 4:06 am)10% (May 13, 5:58 pm)29.37 "Hg (May 17, 2:58 pm)
Average53 °F67%29.86 "Hg
* Reported May 8 12:58 pm — May 23 12:58 pm, Denver. Weather by CustomWeather, © 2017

Note: Actual official high and low records may vary slightly from our data, if they occured in-between our weather recording intervals... More about our weather records

Advertising

Denver Weather History for the Previous 24 Hours

Scroll right to see more
 ConditionsComfort  
Time TempWeatherWind HumidityBarometerVisibility
12:58 pm
Tue, May 23
58 °FPartly sunny.13 mphN/A30.08 "Hg10 mi
11:58 am56 °FPartly sunny.16 mph41%30.09 "Hg10 mi
10:58 am55 °FPartly sunny.22 mph36%30.11 "Hg10 mi
9:58 am53 °FScattered clouds.22 mph43%30.14 "Hg10 mi
8:58 am50 °FScattered clouds.14 mph53%30.16 "Hg10 mi
7:58 am46 °FScattered clouds.7 mph70%30.18 "Hg10 mi
6:58 am40 °FPartly sunny.5 mph88%30.20 "Hg10 mi
5:58 am38 °FPartly sunny.6 mph92%30.19 "Hg10 mi
4:58 am38 °FPassing clouds.6 mph93%30.17 "Hg10 mi
3:58 am39 °FPassing clouds.6 mph94%30.13 "Hg10 mi
2:58 am40 °FPassing clouds.5 mph93%30.14 "Hg10 mi
1:58 am41 °FPassing clouds.3 mph87%30.14 "Hg10 mi
12:58 am40 °FPassing clouds.5 mph88%30.14 "Hg10 mi
11:58 pm
Mon, May 22
40 °FPartly cloudy.6 mph97%30.16 "Hg10 mi
10:58 pm42 °FPartly cloudy.6 mph94%30.16 "Hg10 mi
9:58 pm43 °FPartly cloudy.7 mph86%30.16 "Hg10 mi
8:58 pm43 °FPassing clouds.5 mph90%30.16 "Hg10 mi
7:58 pm42 °FBroken clouds.No wind93%30.16 "Hg7 mi
6:58 pm42 °FLight rain. Fog.16 mph98%30.21 "Hg5 mi
5:58 pm45 °FLight rain. Mostly cloudy.26 mph89%30.14 "Hg7 mi
5:35 pm48 °FCloudy.23 mph87%30.10 "Hg10 mi
4:58 pm50 °FLight rain. Mostly cloudy.20 mph87%30.09 "Hg7 mi
4:13 pm61 °FLight rain. Broken clouds.31 mph34%29.98 "Hg10 mi
3:58 pm63 °FBroken clouds.13 mph26%29.94 "Hg10 mi
2:58 pm64 °FBroken clouds.5 mph25%29.94 "Hg10 mi
Weather by CustomWeather, © 2017

See weather overviewHow to use our weather pages